Location: Newark
(41.0400°S, 62.7845°W)
Time: 22:15:55
(UTC+00:00)

Courier 1B - All Passes

Search period start: 06 December 2021 00:00
Search period end: 16 December 2021 00:00
Orbit: 962 x 1209 km, 28.3° (Epoch: 06 December)

Date Brightness Start Highest point End Pass type
(mag) Time Alt. Az. Time Alt. Az. Time Alt. Az.
06 Dec - 07:33:37 10° NNW 07:38:07 19° NNE 07:42:46 10° ENE visible
06 Dec - 09:25:36 10° NW 09:31:15 28° N 09:37:10 10° ENE daylight
06 Dec - 11:19:01 10° WNW 11:24:33 25° N 11:30:20 10° NE daylight
06 Dec - 13:14:27 10° NW 13:17:45 13° NNW 13:21:06 10° N daylight
07 Dec - 06:40:56 10° NNW 06:44:38 16° NNE 06:48:24 10° NE visible
07 Dec - 08:32:15 10° NW 08:37:40 26° N 08:43:18 10° ENE daylight
07 Dec - 10:25:20 10° WNW 10:30:55 27° N 10:36:46 10° NE daylight
07 Dec - 12:19:56 10° WNW 12:24:08 16° NNW 12:28:28 10° NNE daylight
08 Dec - 05:48:48 10° N 05:51:10 12° NNE 05:53:33 10° NE visible
08 Dec - 07:39:00 10° NW 07:44:06 24° N 07:49:23 10° ENE visible
08 Dec - 09:31:46 10° WNW 09:37:19 28° N 09:43:07 10° NE daylight
08 Dec - 11:25:49 10° WNW 11:30:32 19° NNW 11:35:25 10° NNE daylight
09 Dec - 06:45:53 10° NNW 06:50:35 21° NNE 06:55:24 10° ENE visible
09 Dec - 08:38:15 10° NW 08:43:43 28° N 08:49:24 10° NE daylight
09 Dec - 10:31:55 10° WNW 10:36:56 22° NNW 10:42:09 10° NNE daylight
10 Dec - 05:52:56 10° NNW 05:57:05 18° NNE 06:01:18 10° ENE visible
10 Dec - 07:44:49 10° NW 07:50:10 27° N 07:55:39 10° ENE visible
10 Dec - 09:38:10 10° WNW 09:43:22 24° N 09:48:45 10° NE daylight
10 Dec - 11:33:33 10° NW 11:36:28 13° NNW 11:39:27 10° N daylight
11 Dec - 05:00:16 10° N 05:03:37 15° NNE 05:06:59 10° NE visible
11 Dec - 06:51:27 10° NW 06:56:37 25° N 07:01:53 10° ENE visible
11 Dec - 08:44:31 10° WNW 08:49:47 26° N 08:55:14 10° NE daylight
11 Dec - 10:39:04 10° NW 10:42:55 16° NNW 10:46:52 10° NNE daylight
12 Dec - 04:08:15 10° N 04:10:09 11° NNE 04:12:03 10° NE visible
12 Dec - 05:58:11 10° NW 06:03:06 23° NNE 06:08:03 10° ENE visible
12 Dec - 07:50:56 10° WNW 07:56:14 26° N 08:01:41 10° NE visible
12 Dec - 09:44:58 10° WNW 09:49:22 19° NNW 09:53:54 10° NNE daylight
13 Dec - 05:05:01 10° NNW 05:09:35 20° NNE 05:14:10 10° ENE visible
13 Dec - 06:57:25 10° NW 07:02:42 27° N 07:08:04 10° NE visible
13 Dec - 08:51:05 10° WNW 08:55:50 21° NNW 09:00:43 10° NNE daylight
14 Dec - 04:12:01 10° NNW 04:16:06 17° NNE 04:20:09 10° ENE visible
14 Dec - 06:03:55 10° NW 06:09:09 26° N 06:14:25 10° ENE visible
14 Dec - 07:57:20 10° WNW 08:02:19 23° N 08:07:23 10° NE visible
14 Dec - 09:52:46 10° NW 09:55:20 12° NNW 09:57:57 10° N daylight
15 Dec - 03:19:16 10° N 03:22:36 14° NNE 03:25:53 10° NE night (unlit)
15 Dec - 05:10:30 10° NW 05:15:38 24° N 05:20:45 10° ENE visible
15 Dec - 07:03:37 10° WNW 07:08:47 25° N 07:13:59 10° NE visible
15 Dec - 08:58:13 10° NW 09:01:50 15° NNW 09:05:31 10° NNE daylight
